Weather reports worldwide

Advertisment
Hereford/Credenhill, United Kingdom (3522): temperature & dewpoint: 12.01.2018 13:00:00 - 18.01.2018 13:00:00 (GMT)Hereford/Credenhill, United Kingdom (3522): temperature -20cm & temperature -100cm: 12.01.2018 13:00:00 - 18.01.2018 13:00:00 (GMT)Hereford/Credenhill, United Kingdom (3522): wind speed & gusts: 12.01.2018 13:00:00 - 18.01.2018 13:00:00 (GMT)Hereford/Credenhill, United Kingdom (3522): wind direction: 12.01.2018 13:00:00 - 18.01.2018 13:00:00 (GMT)Hereford/Credenhill, United Kingdom (3522): reduced air pressure: 12.01.2018 13:00:00 - 18.01.2018 13:00:00 (GMT)Hereford/Credenhill, United Kingdom (3522): visibility: 12.01.2018 13:00:00 - 18.01.2018 13:00:00 (GMT)Hereford/Credenhill, United Kingdom (3522): precipitation: 12.01.2018 13:00:00 - 18.01.2018 13:00:00 (GMT)
Date & Time tt [°C] td [°C] tt -20cm [°C] tt -100cm [°C] ff [km/h] ff [kn] fx [km/h] fx [kn] dd ppp [hPa] vv [km] rr [mm]
18.01.2018 13:00:00 6,8 3,9 - - 22 12 - - WNW 1002,3 15 0,4
18.01.2018 12:00:00 6,5 5,0 - - 13 7 - - W 1002,5 45 0,2
18.01.2018 11:00:00 5,6 3,4 - - 21 11 - - WNW 1002,5 11 0,4
18.01.2018 10:00:00 6,4 2,8 - - 22 12 - - W 1001,7 40 0,0
18.01.2018 09:00:00 4,7 2,2 - - 16 9 - - W 1001,6 60 0,0
18.01.2018 08:00:00 4,3 2,0 - - 16 9 - - W 1000,7 40 0,0
18.01.2018 07:00:00 4,6 2,0 - - 22 12 55 30 W 999,7 50 0,0
18.01.2018 06:00:00 5,1 2,0 - - 34 18 65 35 W 998,5 50 0,0
18.01.2018 05:00:00 6,8 1,7 - - 41 22 72 39 W 996,6 35 0,0
18.01.2018 04:00:00 8,6 2,3 - - 50 27 93 50 W 993,8 30 0,0
18.01.2018 03:00:00 10,2 3,8 - - 52 28 89 48 W 991,7 20 0,0
18.01.2018 02:00:00 11,1 5,5 - - 42 23 76 41 W 990,8 21 0,0
18.01.2018 01:00:00 11,3 7,4 - - 42 23 78 42 WSW 991,4 23 0,2
18.01.2018 00:00:00 10,9 8,7 - - 34 18 59 32 WSW 992,2 20 0,2
17.01.2018 23:00:00 5,7 5,4 - - 8 4 - - S 995,2 6 0,6
17.01.2018 22:00:00 5,0 4,5 - - 8 4 - - S 998,0 6 0,4
17.01.2018 21:00:00 4,4 3,4 - - 5 3 - - S 1001,7 6 0,8
17.01.2018 20:00:00 4,7 2,7 - - 5 3 - - SSW 1004,5 12 0,2
17.01.2018 19:00:00 5,6 1,8 - - 9 5 - - SW 1006,5 28 0,0
17.01.2018 18:00:00 5,2 1,7 - - 9 5 - - WSW 1008,1 30 0,0
17.01.2018 17:00:00 5,8 1,1 - - 13 7 - - WSW 1008,6 23 0,0
17.01.2018 16:00:00 5,9 0,7 - - 16 9 - - WSW 1008,8 30 0,0
17.01.2018 15:00:00 6,6 0,4 - - 18 10 - - W 1008,9 29 0,0
17.01.2018 14:00:00 6,6 0,4 - - 28 15 48 26 W 1008,9 30 0,0
17.01.2018 13:00:00 5,3 1,1 - - 22 12 50 27 W 1009,1 29 0,0
17.01.2018 12:00:00 5,5 0,6 - - 26 14 48 26 W 1009,0 30 0,0
17.01.2018 11:00:00 4,8 1,3 - - 22 12 48 26 W 1008,3 10 0,4
17.01.2018 10:00:00 4,5 2,0 - - 16 9 - - W 1008,1 19 0,2
17.01.2018 09:00:00 3,4 0,5 - - 22 12 46 25 W 1007,1 26 0,0
17.01.2018 08:00:00 3,6 0,2 - - 28 15 50 27 W 1005,7 30 0,0
17.01.2018 07:00:00 3,4 0,1 - - 28 15 63 34 W 1004,5 30 0,0
17.01.2018 06:00:00 3,9 -0,4 - - 29 16 52 28 W 1003,0 29 0,0
17.01.2018 05:00:00 3,4 -0,3 - - 26 14 48 26 W 1001,9 15 0,0
17.01.2018 04:00:00 3,1 -0,8 - - 26 14 55 30 W 1000,6 30 0,2
17.01.2018 03:00:00 3,4 -1,1 - - 29 16 54 29 W 999,3 8 0,0
17.01.2018 02:00:00 1,9 -0,7 - - 15 8 52 28 WSW 998,1 30 0,2
17.01.2018 01:00:00 1,8 -0,7 - - 21 11 - - W 997,2 12 0,2
17.01.2018 00:00:00 2,4 -1,7 - - 26 14 - - W 996,6 45 0,0
16.01.2018 23:00:00 2,3 -1,1 - - 21 11 - - W 996,0 40 0,0
16.01.2018 22:00:00 1,8 -0,2 - - 18 10 46 25 W 995,3 35 0,0
16.01.2018 21:00:00 1,5 0,2 - - 22 12 52 28 W 994,9 40 0,8
16.01.2018 20:00:00 2,2 0,2 - - 18 10 54 29 W 994,6 40 0,2
16.01.2018 19:00:00 3,2 -0,1 - - 22 12 - - W 994,3 40 0,0
16.01.2018 18:00:00 2,6 1,0 - - 16 9 48 26 W 994,4 50 0,0
16.01.2018 17:00:00 1,9 0,8 - - 8 4 54 29 W 994,1 35 0,4
16.01.2018 16:00:00 2,6 1,7 - - 16 9 - - W 995,0 10 -
16.01.2018 15:00:00 4,9 0,3 - - 13 7 46 25 W 995,2 24 0,0
16.01.2018 14:00:00 5,4 -0,1 - - 18 10 - - WSW 995,4 30 0,0
16.01.2018 13:00:00 6,0 0,4 - - 24 13 54 29 W 996,2 30 0,4
16.01.2018 12:00:00 4,8 0,6 - - 21 11 - - W 997,1 7 0,0
16.01.2018 11:00:00 5,9 0,3 - - 26 14 - - W 997,1 30 0,0
16.01.2018 10:00:00 5,3 0,0 - - 24 13 48 26 W 996,5 35 0,0
16.01.2018 09:00:00 4,2 0,5 5,5 7,5 18 10 - - W 996,2 40 0,0
16.01.2018 08:00:00 4,4 0,5 - - 22 12 - - W 995,5 30 0,0
16.01.2018 07:00:00 4,8 -0,4 - - 18 10 - - W 995,1 30 0,0
16.01.2018 06:00:00 4,8 0,7 - - 21 11 - - W 994,7 30 0,0
16.01.2018 05:00:00 5,0 1,0 - - 24 13 - - W 994,3 35 0,0
16.01.2018 04:00:00 4,5 2,1 - - 24 13 - - W 993,7 35 0,4
16.01.2018 03:00:00 4,7 2,3 - - 18 10 - - W 993,9 35 0,0
16.01.2018 02:00:00 4,2 1,8 - - 31 17 59 32 W 993,7 60 0,4
16.01.2018 01:00:00 5,6 3,5 - - 13 7 - - W 993,1 40 0,6
16.01.2018 00:00:00 5,9 3,9 - - 13 7 - - WSW 993,9 5 0,2
15.01.2018 23:00:00 6,2 3,4 - - 22 12 - - W 994,0 30 0,0
15.01.2018 22:00:00 6,0 3,4 - - 22 12 - - W 994,3 35 0,0
15.01.2018 21:00:00 6,1 3,9 - - 18 10 - - WSW 994,3 10 0,4
15.01.2018 20:00:00 5,5 3,4 - - 15 8 - - W 994,4 40 0,2
15.01.2018 19:00:00 5,5 3,1 - - 16 9 - - W 994,3 26 0,0
15.01.2018 18:00:00 6,5 3,6 - - 21 11 46 25 W 995,0 7 0,0
15.01.2018 17:00:00 6,8 3,1 - - 24 13 - - W 994,4 18 0,0
15.01.2018 16:00:00 7,4 3,7 - - 24 13 - - W 993,8 45 0,0
15.01.2018 15:00:00 7,5 3,4 - - 28 15 55 30 W 993,6 55 0,0
15.01.2018 14:00:00 9,9 5,7 - - 26 14 46 25 W 992,5 60 0,0
15.01.2018 13:00:00 9,3 5,7 - - 28 15 48 26 W 992,9 35 0,2
15.01.2018 12:00:00 9,7 7,1 - - 15 8 - - WSW 993,0 55 0,0
15.01.2018 11:00:00 9,2 7,8 - - 9 5 - - SW 993,5 70 1,0
15.01.2018 10:00:00 9,2 7,6 - - 5 3 - - SSW 994,6 10 0,4
15.01.2018 09:00:00 9,9 7,9 5,0 7,7 15 8 - - WSW 995,3 15 1,0
15.01.2018 08:00:00 10,5 7,9 - - 15 8 - - WSW 995,9 45 0,0
15.01.2018 07:00:00 9,7 8,4 - - 8 4 - - SW 996,9 55 0,0
15.01.2018 06:00:00 8,3 7,7 - - 5 3 - - SSW 998,0 55 0,2
15.01.2018 05:00:00 7,7 6,9 - - 8 4 - - SSW 999,2 7 0,2
15.01.2018 04:00:00 7,1 6,3 - - 11 6 - - SSW 1001,2 12 0,0
15.01.2018 03:00:00 7,1 5,5 - - 9 5 - - S 1003,0 20 0,0
15.01.2018 02:00:00 7,2 4,3 - - 11 6 - - SSW 1005,0 45 -
15.01.2018 01:00:00 6,0 4,5 - - 4 2 - - S 1007,5 12 0,0
15.01.2018 00:00:00 5,7 4,1 - - 9 5 - - S 1009,0 7 0,0
14.01.2018 23:00:00 5,2 3,7 - - 8 4 - - SSW 1010,4 7 0,0
14.01.2018 22:00:00 4,9 3,3 - - 5 3 - - S 1011,8 7 0,0
14.01.2018 21:00:00 4,2 2,7 - - 8 4 - - S 1013,6 7 0,0
14.01.2018 20:00:00 3,6 1,5 - - 8 4 - - S 1014,5 7 0,0
14.01.2018 19:00:00 3,0 0,7 - - 5 3 - - S 1015,6 7 0,0
14.01.2018 18:00:00 3,4 0,9 - - 5 3 - - S 1015,8 8 0,0
14.01.2018 17:00:00 3,2 0,7 - - 5 3 - - S 1016,4 8 0,0
14.01.2018 16:00:00 3,6 0,9 - - 4 2 - - S 1016,4 7 0,0
14.01.2018 15:00:00 3,9 1,1 - - 5 3 - - SSE 1017,4 7 0,0
14.01.2018 14:00:00 4,1 0,8 - - 9 5 - - SSE 1018,0 8 0,0
14.01.2018 13:00:00 4,3 0,8 - - 8 4 - - SSE 1018,7 9 0,0
14.01.2018 12:00:00 4,4 1,7 - - 5 3 - - S 1019,4 7 0,0
14.01.2018 11:00:00 4,2 2,2 - - 8 4 - - SE 1019,2 6 0,0
14.01.2018 10:00:00 3,8 2,1 - - 2 1 - - ESE 1020,2 6 0,0
14.01.2018 09:00:00 3,3 1,7 5,0 7,7 0 0 - - N 1019,8 7 0,0
14.01.2018 08:00:00 3,6 1,5 - - 4 2 - - E 1019,1 8 0,0
14.01.2018 07:00:00 3,7 1,5 - - 5 3 - - ENE 1019,1 9 0,0
14.01.2018 06:00:00 3,8 1,1 - - 2 1 - - SE 1019,2 11 0,0
14.01.2018 05:00:00 4,3 1,4 - - 5 3 - - SE 1019,3 11 0,0
14.01.2018 04:00:00 4,2 1,7 - - 4 2 - - ESE 1019,2 9 0,0
14.01.2018 03:00:00 4,3 2,1 - - 4 2 - - SE 1019,1 8 0,0
14.01.2018 02:00:00 4,6 2,2 - - 8 4 - - ESE 1019,1 8 0,0
14.01.2018 01:00:00 4,9 2,6 - - 9 5 - - E 1019,0 8 0,0
14.01.2018 00:00:00 5,0 2,8 - - 11 6 - - E 1019,0 8 0,0
13.01.2018 23:00:00 5,3 2,9 - - 8 4 - - E 1018,6 8 0,0
13.01.2018 22:00:00 5,7 3,0 - - 9 5 - - ESE 1018,6 10 0,0
13.01.2018 21:00:00 5,8 3,2 - - 9 5 - - ESE 1018,3 9 0,0
13.01.2018 20:00:00 5,9 3,4 - - 9 5 - - ESE 1018,1 9 0,0
13.01.2018 19:00:00 6,1 3,5 - - 9 5 - - ESE 1017,7 10 0,0
13.01.2018 18:00:00 6,5 3,4 - - 8 4 - - ESE 1017,2 13 0,0
13.01.2018 17:00:00 6,8 4,0 - - 9 5 - - E 1016,9 7 0,0
13.01.2018 16:00:00 7,2 3,8 - - 8 4 - - SE 1016,5 18 0,0
13.01.2018 15:00:00 7,3 3,8 - - 11 6 - - ESE 1016,3 17 0,0
13.01.2018 14:00:00 7,2 3,9 - - 11 6 - - SE 1016,5 16 0,0
13.01.2018 13:00:00 6,9 4,1 - - 11 6 - - ESE 1016,6 23 0,0
13.01.2018 12:00:00 6,0 3,4 - - 9 5 - - ESE 1017,4 18 0,0
13.01.2018 11:00:00 5,7 3,1 - - 13 7 - - ESE 1017,8 17 0,0
13.01.2018 10:00:00 5,3 3,0 - - 11 6 - - ESE 1017,6 16 0,0
13.01.2018 09:00:00 5,2 2,8 4,7 7,7 13 7 - - ESE 1017,6 16 0,0
13.01.2018 08:00:00 5,0 2,8 - - 11 6 - - ESE 1017,4 14 0,0
13.01.2018 07:00:00 5,1 2,5 - - 13 7 - - ESE 1017,7 14 0,0
13.01.2018 06:00:00 5,2 2,5 - - 13 7 - - ESE 1017,6 15 0,0
13.01.2018 05:00:00 5,3 3,2 - - 9 5 - - ESE 1018,1 12 0,0
13.01.2018 04:00:00 5,1 3,3 - - 9 5 - - ESE 1018,5 10 0,0
13.01.2018 03:00:00 4,8 3,4 - - 9 5 - - ESE 1019,0 8 0,0
13.01.2018 02:00:00 5,1 3,5 - - 11 6 - - ESE 1019,4 8 0,0
13.01.2018 01:00:00 5,5 3,5 - - 13 7 - - ESE 1020,1 9 0,0
13.01.2018 00:00:00 5,6 4,0 - - 11 6 - - SE 1020,7 8 0,0
12.01.2018 23:00:00 5,8 4,3 - - 11 6 - - SE 1021,1 7 0,0
12.01.2018 22:00:00 5,7 4,9 - - 13 7 - - ESE 1021,3 5 0,0
12.01.2018 21:00:00 4,4 4,4 - - 8 4 - - E 1022,1 3,1 0,0
12.01.2018 20:00:00 2,2 2,2 - - 5 3 - - E 1022,6 1,2 0,0
12.01.2018 19:00:00 1,5 1,5 - - 2 1 - - W 1023,0 0,5 0,0
12.01.2018 18:00:00 1,7 1,7 - - 2 1 - - NW 1023,3 0,9 0,0
12.01.2018 17:00:00 2,1 2,0 - - 2 1 - - SW 1023,5 0,7 0,0
12.01.2018 16:00:00 2,4 2,3 - - 4 2 - - E 1023,7 1,5 0,0
12.01.2018 15:00:00 2,8 2,7 - - 8 4 - - ENE 1024,0 2,3 0,0
12.01.2018 14:00:00 2,9 2,9 - - 4 2 - - E 1024,8 1,9 0,0
12.01.2018 13:00:00 1,9 1,9 - - 4 2 - - E 1025,6 2,2 0,0

tt = temperature
td = dewpoint
tt -20cm = temperature -20cm
tt -100cm = temperature -100cm
ff = wind speed
fx = gusts
dd = wind direction
ppp = reduced air pressure
vv = visibility
rr = precipitation

Next stations